Location: *
(40.7873°S, 98.7174°E)
Time: 00:56:34
(UTC+00:00)

ARIANE 6 FM1 Upper Stage - Pass Details

Date: 23 December 2025
Orbit: 522 x 610 km, 62.0° (Epoch: 20 January)

Event Time Altitude Azimuth Distance (km) Brightness Sun altitude
Rises 17:12:12 0° 215° (SW) 2,907 7.2 -25.7°
Reaches altitude 10° 17:14:32 10° 213° (SSW) 1,991 6.2 -25.7°
Enters shadow 17:18:45 68° 159° (SSE) 661 3.0 -25.8°
